CW1621 Weather Reports


Display with metric or nautical units.
time (UTC)temp
F
wind
direction
speed
MPH
gust
MPH
rain 1hr
in
rain 24hr
in
rain mn
in
humidity
%
barometer
mb
20260503204603 74 342 3.0 8.0 0.00 0.00 0.00 44 1014.1
20260503204103 74 311 3.0 12.0 0.00 0.00 0.00 45 1014.1
20260503203103 74 356 3.0 7.0 0.00 0.00 0.00 44 1014.1
20260503202603 74 14 3.0 10.0 0.00 0.00 0.00 45 1014.1
20260503202103 74 341 2.0 10.0 0.00 0.00 0.00 46 1014.2
20260503201603 74 1 1.0 7.0 0.00 0.00 0.00 46 1014.1
20260503201103 74 351 3.0 7.0 0.00 0.00 0.00 43 1014.3
20260503200604 75 13 2.0 6.0 0.00 0.00 0.00 43 1014.3
20260503195103 74 322 3.0 7.0 0.00 0.00 0.00 43 1014.7
20260503194604 74 348 2.0 7.0 0.00 0.00 0.00 48 1014.5
20260503194103 74 348 2.0 6.0 0.00 0.00 0.00 49 1014.6
20260503193603 74 347 3.0 9.0 0.00 0.00 0.00 45 1014.8
20260503193104 74 344 2.0 7.0 0.00 0.00 0.00 43 1014.9
20260503192103 73 330 2.0 6.0 0.00 0.00 0.00 43 1015.0
20260503191603 73 315 2.0 6.0 0.00 0.00 0.00 46 1015.0
20260503191103 73 28 1.0 5.0 0.00 0.00 0.00 48 1014.8
20260503190603 72 332 2.0 5.0 0.00 0.00 0.00 46 1014.8
20260503190104 71 330 2.0 6.0 0.00 0.00 0.00 48 1014.9
20260503185103 70 26 3.0 6.0 0.00 0.00 0.00 47 1015.2
20260503184604 69 354 3.0 12.0 0.00 0.00 0.00 51 1015.2
20260503183604 69 288 3.0 7.0 0.00 0.00 0.00 51 1015.3
20260503183104 69 270 4.0 7.0 0.00 0.00 0.00 49 1015.3
20260503182603 68 304 2.0 5.0 0.00 0.00 0.00 51 1015.6
20260503182103 69 270 6.0 8.0 0.00 0.00 0.00 47 1015.5
20260503181603 70 163 1.0 3.0 0.00 0.00 0.00 50 1015.5
20260503181104 70 115 0.0 1.0 0.00 0.00 0.00 52 1015.3
20260503180603 69 115 1.0 3.0 0.00 0.00 0.00 49 1014.8
20260503180103 68 115 1.0 3.0 0.00 0.00 0.00 55 1015.1
20260503175603 68 112 1.0 3.0 0.00 0.00 0.00 55 1015.2
20260503175103 68 100 2.0 3.0 0.00 0.00 0.00 56 1015.1
20260503174603 67 92 3.0 6.0 0.00 0.00 0.00 52 1015.2
20260503174103 67 95 5.0 7.0 0.00 0.00 0.00 55 1015.2
20260503173103 67 88 2.0 3.0 0.00 0.00 0.00 53 1015.3
20260503172603 67 88 3.0 3.0 0.00 0.00 0.00 54 1015.3
20260503172103 66 97 2.0 3.0 0.00 0.00 0.00 53 1015.6
20260503171603 66 100 3.0 5.0 0.00 0.00 0.00 56 1015.6
20260503171104 66 81 2.0 3.0 0.00 0.00 0.00 55 1015.5
20260503170603 65 81 2.0 5.0 0.00 0.00 0.00 57 1015.3
20260503170103 65 88 2.0 6.0 0.00 0.00 0.00 59 1015.4
20260503160103 62 99 4.0 6.0 0.00 0.00 0.00 60 1015.5
20260503150603 61 144 2.0 3.0 0.00 0.00 0.00 60 1015.5
20260503150103 61 146 2.0 3.0 0.00 0.00 0.00 59 1015.5
20260503131103 46 240 3.0 3.0 0.00 0.00 0.00 77 1016.2
20260503130604 46 251 2.0 3.0 0.00 0.00 0.00 76 1016.0
20260503120104 52 28 2.0 3.0 0.00 0.00 0.00 65 1015.2
20260503110603 48 278 3.0 3.0 0.00 0.00 0.00 73 1016.3
20260503110104 49 278 2.0 3.0 0.00 0.00 0.00 72 1016.1
20260503100103 51 278 1.0 2.0 0.00 0.00 0.00 68 1016.1
20260503090104 51 278 0.0 1.0 0.00 0.00 0.00 69 1015.9
20260503081103 47 334 2.0 3.0 0.00 0.00 0.00 77 1016.6
20260503080604 47 334 2.0 3.0 0.00 0.00 0.00 77 1016.7
20260503072604 50 334 2.0 3.0 0.00 0.00 0.00 72 1016.2
20260503071604 50 334 1.0 2.0 0.00 0.00 0.00 70 1016.2
20260503071104 51 334 2.0 3.0 0.00 0.00 0.00 70 1016.2
20260503070604 51 334 2.0 3.0 0.00 0.00 0.00 70 1016.2
20260503070103 52 334 2.0 3.0 0.00 0.00 0.00 69 1016.2
20260503060104 59 334 1.0 2.0 0.00 0.00 0.00 54 1015.4
20260503055103 60 334 1.0 3.0 0.00 0.00 0.00 49 1015.4
20260503054603 59 336 0.0 1.0 0.00 0.00 0.00 51 1015.4
20260503054103 59 319 1.0 3.0 0.00 0.00 0.00 52 1015.4
20260503053603 58 330 1.0 3.0 0.00 0.00 0.00 53 1015.7
20260503053103 57 330 1.0 2.0 0.00 0.00 0.00 54 1015.7
20260503052603 56 330 1.0 2.0 0.00 0.00 0.00 57 1015.9
20260503052104 56 330 1.0 2.0 0.00 0.00 0.00 60 1016.0
20260503051603 58 330 1.0 2.0 0.00 0.00 0.00 57 1015.7
20260503051103 60 330 1.0 2.0 0.00 0.00 0.00 54 1015.6
20260503050604 61 330 1.0 2.0 0.00 0.00 0.00 49 1015.7
20260503050103 61 330 2.0 3.0 0.00 0.00 0.00 48 1015.7
20260503045603 61 330 1.0 2.0 0.00 0.00 0.00 48 1015.7
20260503045103 61 330 1.0 2.0 0.00 0.00 0.00 48 1015.7
20260503044603 61 330 1.0 2.0 0.00 0.00 0.00 47 1015.7
20260503044103 61 330 0.0 3.0 0.00 0.00 0.00 47 1015.6
20260503043604 62 330 1.0 3.0 0.00 0.00 0.00 47 1015.4
20260503043104 62 330 1.0 2.0 0.00 0.00 0.00 46 1015.4
20260503042603 62 330 2.0 3.0 0.00 0.00 0.00 46 1015.4
20260503042103 61 330 1.0 3.0 0.00 0.00 0.00 47 1015.4
20260503041603 61 331 1.0 3.0 0.00 0.00 0.00 47 1015.4
20260503040604 62 311 1.0 3.0 0.00 0.00 0.00 48 1015.8
20260503040103 62 309 2.0 3.0 0.00 0.00 0.00 48 1015.7
20260503035603 62 307 2.0 3.0 0.00 0.00 0.00 47 1015.6
20260503035104 62 305 1.0 3.0 0.00 0.00 0.00 48 1015.6
20260503034603 62 286 2.0 3.0 0.00 0.00 0.00 48 1015.6
20260503034103 61 282 1.0 3.0 0.00 0.00 0.00 48 1015.7
20260503033603 61 282 2.0 3.0 0.00 0.00 0.00 50 1015.7
20260503033104 61 282 2.0 3.0 0.00 0.00 0.00 53 1015.6
20260503032604 62 282 3.0 3.0 0.00 0.00 0.00 54 1015.2
20260503032104 62 282 3.0 3.0 0.00 0.00 0.00 53 1015.1
20260503031603 63 282 3.0 5.0 0.00 0.00 0.00 51 1015.2
20260503030604 63 282 3.0 3.0 0.00 0.00 0.00 51 1015.6
20260503030103 64 282 3.0 5.0 0.00 0.00 0.00 51 1015.3
20260503025603 64 282 5.0 5.0 0.00 0.00 0.00 48 1015.4
20260503024604 65 282 3.0 3.0 0.00 0.00 0.00 49 1015.3
20260503024104 65 282 3.0 5.0 0.00 0.00 0.00 48 1015.2
20260503023603 65 282 5.0 5.0 0.00 0.00 0.00 49 1015.4
20260503022604 65 284 4.0 5.0 0.00 0.00 0.00 50 1015.4
20260503022103 65 284 3.0 3.0 0.00 0.00 0.00 50 1015.3
20260503021603 66 283 4.0 5.0 0.00 0.00 0.00 49 1015.1
20260503020603 68 289 3.0 3.0 0.00 0.00 0.00 45 1015.5
20260503015103 70 311 1.0 3.0 0.00 0.00 0.00 43 1015.3
20260503014604 71 311 1.0 2.0 0.00 0.00 0.00 40 1014.9
20260503014104 72 311 1.0 3.0 0.00 0.00 0.00 41 1015.0
20260503013603 72 333 2.0 3.0 0.00 0.00 0.00 41 1014.9
20260503013103 73 333 1.0 3.0 0.00 0.00 0.00 40 1014.8
20260503012103 74 335 2.0 5.0 0.00 0.00 0.00 37 1014.8
20260503011604 74 343 1.0 3.0 0.00 0.00 0.00 37 1014.8
20260503011103 74 321 1.0 3.0 0.00 0.00 0.00 37 1014.8
20260503010603 73 343 2.0 5.0 0.00 0.00 0.00 38 1015.1
20260503005603 73 5 1.0 3.0 0.00 0.00 0.00 36 1015.1
20260503004603 74 68 1.0 2.0 0.00 0.00 0.00 34 1015.0
20260503004103 73 75 1.0 3.0 0.00 0.00 0.00 35 1015.2
20260503003604 73 81 0.0 2.0 0.00 0.00 0.00 35 1015.2
20260503003103 73 81 1.0 3.0 0.00 0.00 0.00 33 1015.3
20260503002604 74 79 3.0 5.0 0.00 0.00 0.00 36 1014.9
20260503001603 74 328 1.0 5.0 0.00 0.00 0.00 36 1014.9
20260503001103 74 3 1.0 3.0 0.00 0.00 0.00 36 1014.9
20260503000603 72 120 0.0 2.0 0.00 0.00 0.00 38 1015.1
20260503000104 71 117 1.0 2.0 0.00 0.00 0.00 35 1015.3
20260502235604 71 117 1.0 2.0 0.00 0.00 0.00 36 1015.3
20260502235103 71 117 1.0 3.0 0.00 0.00 0.00 36 1015.3
20260502234603 71 117 2.0 3.0 0.00 0.00 0.00 36 1015.4
20260502233603 71 112 2.0 5.0 0.00 0.00 0.00 35 1015.4
20260502233103 71 98 1.0 5.0 0.00 0.00 0.00 36 1015.4
20260502232103 72 58 2.0 5.0 0.00 0.00 0.00 34 1015.5
20260502231603 71 353 1.0 5.0 0.00 0.00 0.00 36 1015.7
20260502230603 70 98 2.0 5.0 0.00 0.00 0.00 34 1016.0
20260502230104 71 83 3.0 5.0 0.00 0.00 0.00 35 1015.8
20260502225603 71 102 5.0 7.0 0.00 0.00 0.00 34 1015.8
20260502225103 71 123 3.0 7.0 0.00 0.00 0.00 33 1015.9
20260502224603 71 84 6.0 8.0 0.00 0.00 0.00 34 1016.0
20260502223603 72 136 2.0 5.0 0.00 0.00 0.00 36 1016.0
20260502223103 71 14 4.0 9.0 0.00 0.00 0.00 34 1016.1
20260502222603 70 28 4.0 6.0 0.00 0.00 0.00 34 1016.4
20260502222104 70 65 4.0 7.0 0.00 0.00 0.00 33 1016.5
20260502221603 70 87 4.0 9.0 0.00 0.00 0.00 35 1016.5
20260502221103 70 67 5.0 8.0 0.00 0.00 0.00 33 1016.4
20260502220603 70 52 5.0 12.0 0.00 0.00 0.00 31 1016.4
20260502220104 70 57 3.0 9.0 0.00 0.00 0.00 36 1016.4
20260502215604 70 60 3.0 6.0 0.00 0.00 0.00 34 1016.5
20260502215103 70 82 5.0 7.0 0.00 0.00 0.00 34 1016.5
20260502214104 70 82 3.0 14.0 0.00 0.00 0.00 34 1016.5
20260502213603 70 84 7.0 12.0 0.00 0.00 0.00 34 1016.6
20260502212603 70 83 5.0 10.0 0.00 0.00 0.00 30 1016.6
20260502212103 71 70 6.0 12.0 0.00 0.00 0.00 37 1016.6
20260502211604 70 53 4.0 10.0 0.00 0.00 0.00 37 1016.7
20260502211103 70 76 7.0 10.0 0.00 0.00 0.00 36 1016.9
20260502210604 69 88 5.0 9.0 0.00 0.00 0.00 39 1016.8
20260502210104 69 101 5.0 10.0 0.00 0.00 0.00 37 1016.9
20260502205603 70 107 2.0 9.0 0.00 0.00 0.00 35 1016.8
20260502205104 70 72 5.0 10.0 0.00 0.00 0.00 39 1016.8